Station CMAN4 - 8536110 - Cape May, NJ Image indicating link to RSS feed of recent meteorological observations for station CMAN4


Conditions at CMAN4 as of
(12:18 am EDT)
0418 GMT on 04/15/2024:
     

Click on the graph icon in the table below to see a time series plot of the last five days of that observation.

5-day plot - Wind Direction Wind Direction (WDIR): W ( 270 deg true )
5-day plot - Wind Speed Wind Speed (WSPD): 4.1 kts
5-day plot - Wind Gust Wind Gust (GST): 7.0 kts
5-day plot - Atmospheric Pressure Atmospheric Pressure (PRES):29.81 in
5-day plot - Air Temperature Air Temperature (ATMP): 62.1 °F
5-day plot - Water Temperature Water Temperature (WTMP): 72.9 °F
5-day plot - Wind Speed at 10 Meters Wind Speed at 10 meters (WSPD10M): 3.9 kts
5-day plot - Wind Speed at 20 Meters Wind Speed at 20 meters (WSPD20M): 3.9 kts
5-day plot -  Wind Speed, Wind Gust and Atmospheric Pressure Combined plot of Wind Speed, Gust, and Air Pressure
NOS Water Level Observation Network Water Level
Previous observations
TIME
(EDT)
5-day plot - Wind Direction
WDIR
 
5-day plot - Wind Speed
WSPD
kts
5-day plot - Wind Gust
GST
kts
5-day plot - Wave Height
WVHT
ft
5-day plot - Dominant Wave Period
DPD
sec
5-day plot - Average Wave Period
APD
sec
5-day plot - Mean Wave Direction
MWD
 
5-day plot - Atmospheric Pressure
PRES
in
5-day plot - Pressure Tendency
PTDY
in
5-day plot - Air Temperature
ATMP
°F
5-day plot - Water Temperature
WTMP
°F
5-day plot - Dew Point
DEWP
°F
5-day plot - Salinity
SAL
psu
5-day plot - Visibility
VIS
nmi
5-day plot - Tide (above MLLW)
TIDE
ft
2024-04-15 12:12 am NW 4.1 8.9----29.81- 65.1 72.9----
2024-04-15 12:06 amWNW 7.0 9.9----29.81- 64.9 72.9----
2024-04-15 12:00 amWNW 5.1 8.0----29.81+0.06 64.4 72.9----
2024-04-14 11:54 pm W 6.0 8.0----29.81- 63.5 72.9----
2024-04-14 11:48 pm NW 4.1 7.0----29.81- 64.4 72.9----
2024-04-14 11:42 pm W 6.0 7.0----29.81- 64.2 72.9----
2024-04-14 11:36 pm NW 5.1 8.0----29.82- 65.3 72.7----
2024-04-14 11:30 pmWNW 7.0 9.9----29.82- 65.7 72.7----
2024-04-14 11:24 pmNNW 6.0 15.9----29.83- 65.3 72.7----
2024-04-14 11:18 pm NW 8.9 26.0----29.83- 68.9 72.5----
2024-04-14 11:12 pm SW 11.1 18.1----29.78- 66.9 72.5----
2024-04-14 11:06 pmSSW 2.9 15.9----29.82- 63.3 72.5----
2024-04-14 11:00 pmNNW 8.9 22.0----29.83+0.12 62.6 72.5----
2024-04-14 10:54 pm S 6.0 9.9----29.77- 63.9 72.5----
2024-04-14 10:48 pm S 6.0 11.1----29.77- 64.0 72.5----
2024-04-14 10:42 pm S 8.0 13.0----29.77- 64.6 72.5----
2024-04-14 10:36 pm S 8.0 12.0----29.77- 64.0 72.7----
2024-04-14 10:30 pm S 7.0 9.9----29.76- 62.8 72.7----
2024-04-14 10:24 pm S 8.9 13.0----29.76- 63.7 72.7----
2024-04-14 10:18 pm S 8.0 15.0----29.76- 63.5 72.7----
2024-04-14 10:12 pm S 8.9 15.0----29.76- 63.9 72.9----
2024-04-14 10:06 pm S 12.0 15.9----29.76- 65.3 72.9----
2024-04-14 10:00 pm S 12.0 15.0----29.77+0.04 65.3 72.9----
2024-04-14 09:54 pm S 11.1 15.0----29.77- 65.5 72.9----
2024-04-14 09:48 pm S 11.1 15.0----29.77- 65.5 72.9----
2024-04-14 09:42 pm S 12.0 15.9----29.76- 64.6 72.9----
2024-04-14 09:36 pm S 8.9 14.0----29.76- 63.3 72.9----
2024-04-14 09:30 pm S 8.0 12.0----29.76- 62.2 72.9----
2024-04-14 09:24 pm S 8.9 14.0----29.76- 61.7 72.9----
2024-04-14 09:18 pm S 11.1 15.0----29.76- 61.5 72.9----
2024-04-14 09:12 pm S 9.9 15.0----29.76- 61.3 72.9----
2024-04-14 09:06 pm S 8.9 15.9----29.75- 61.0 73.0----
2024-04-14 09:00 pm S 12.0 15.9----29.75-0.01 61.3 73.0----
2024-04-14 08:54 pm S 11.1 15.0----29.74- 61.3 73.0----
2024-04-14 08:48 pm S 13.0 20.0----29.74-- 73.0----
2024-04-14 08:42 pm S 9.9 18.1----29.73-- 72.9----
2024-04-14 08:36 pm S 11.1 15.9----29.72-- 72.9----
2024-04-14 08:30 pm-------29.72- 59.7 72.9----
2024-04-14 08:24 pm-------29.72- 59.5 73.0----
2024-04-14 08:18 pmSSE 13.0 17.1------ 59.5 73.0----
2024-04-14 08:12 pmSSE 11.1 15.9------ 60.3 73.0----
2024-04-14 08:06 pmSSE 12.0 15.9------ 60.3 72.9----
2024-04-14 08:00 pmSSE 12.0 15.9----29.72-0.06 59.9 72.9----
2024-04-14 07:54 pm S 12.0 18.1----29.72- 60.6 72.9----
2024-04-14 07:48 pmSSE 13.0 17.1----29.72- 60.8 72.9----
2024-04-14 07:42 pmSSE 13.0 20.0----29.72- 61.2 72.9----
2024-04-14 07:36 pmSSE 13.0 17.1----29.72- 61.0 72.9----
2024-04-14 07:30 pmSSE 13.0 19.0----29.72- 60.6 72.9----
2024-04-14 07:24 pmSSE 13.0 18.1----29.72- 60.6 72.9----
2024-04-14 07:00 pmSSE 14.0 22.0----29.73-0.08- 72.7----
2024-04-14 06:54 pmSSE 11.1 21.0----29.73-- 72.7----
2024-04-14 06:48 pm S 14.0 17.1----29.73- 61.0 72.5----
2024-04-14 06:42 pmSSE 12.0 22.0----29.74- 60.3 72.7----
2024-04-14 06:36 pmSSE 14.0 21.0----29.74- 60.3 72.7----
2024-04-14 06:30 pmSSE 12.0 18.1----29.75- 60.6 72.7----
2024-04-14 06:24 pmSSE 12.0 20.0----29.75- 60.8 72.5----
2024-04-14 06:18 pmSSE 12.0 17.1----29.76- 60.8 72.5----
2024-04-14 06:12 pm S 14.0 21.0----29.76- 61.0 72.7----
2024-04-14 06:06 pmSSE 12.0 19.0----29.76- 61.0 72.7----
2024-04-14 06:00 pmSSE 15.0 22.9----29.76-0.07 61.3 72.7----
2024-04-14 05:54 pmSSE 15.9 24.1----29.76- 61.5 72.5----
2024-04-14 05:48 pmSSE 15.9 24.1----29.76-- 72.5----
2024-04-14 05:42 pmSSE 15.9 22.9----29.76-- 72.3----
2024-04-14 05:36 pmSSE 11.1 20.0----29.76-- 72.1----
2024-04-14 05:30 pmSSE 15.0 22.0----29.76-- 72.1----
2024-04-14 05:24 pmSSE 15.0 22.9----29.76-- 72.1----
2024-04-14 05:18 pmSSE 17.1 21.0----29.76- 60.8 72.1----
2024-04-14 05:12 pmSSE 15.0 24.1----29.77- 60.6 72.3----
2024-04-14 05:06 pmSSE 15.9 21.0----29.78- 61.0 72.3----
2024-04-14 05:00 pm S 12.0 19.0----29.78-0.12 61.2 72.3----
2024-04-14 04:54 pmSSE 13.0 20.0----29.78- 60.6 72.3----
2024-04-14 04:48 pmSSE 14.0 21.0----29.78- 60.6 72.1----
2024-04-14 04:42 pmSSE 15.0 21.0----29.78- 60.6 72.0----
2024-04-14 04:36 pmSSE 15.9 22.0----29.79- 61.2 72.0----
2024-04-14 04:30 pmSSE 17.1 22.9----29.79- 60.8 72.0----
2024-04-14 04:24 pm S 15.9 24.1----29.79- 61.0 72.0----
2024-04-14 04:18 pm S 18.1 26.0----29.79- 61.2 72.0----
2024-04-14 04:12 pmSSE 15.9 22.0----29.80- 61.3 72.0----
2024-04-14 04:06 pm S 17.1 24.1----29.80- 61.2 72.0----
2024-04-14 04:00 pm S 18.1 22.9----29.80-0.14 61.0 72.0----
2024-04-14 03:54 pm S 17.1 28.0----29.81- 61.7 72.0----
2024-04-14 03:48 pm S 15.0 28.0----29.81- 62.4 72.0----
2024-04-14 03:42 pm S 19.0 25.1----29.81- 62.8 72.0----
2024-04-14 03:36 pm S 19.0 28.0----29.81- 63.7 72.0----
2024-04-14 03:30 pm S 18.1 25.1----29.81- 63.5 72.0----
2024-04-14 03:24 pm S 19.0 25.1----29.81- 63.7 72.0----
2024-04-14 03:18 pmSSE 17.1 28.9----29.82- 63.7 72.5----
2024-04-14 03:12 pm S 15.9 22.9----29.82- 63.1 72.7----
2024-04-14 03:06 pm S 17.1 28.0----29.83- 63.1 72.7----
2024-04-14 03:00 pm S 19.0 25.1----29.83-0.14------
2024-04-14 02:54 pmSSE 18.1 24.1----29.83-------
2024-04-14 02:48 pmSSE 17.1 25.1----29.84- 62.6 72.5----
2024-04-14 02:42 pmSSE 19.0 26.0----29.85- 62.6 72.5----
2024-04-14 02:36 pmSSE 15.9 28.0----29.85- 62.6 72.5----
2024-04-14 02:30 pmSSE 18.1 24.1----29.85- 62.1 72.5----
2024-04-14 02:24 pmSSE 18.1 24.1----29.86- 61.7 72.5----
2024-04-14 02:18 pmSSE 15.9 24.1----29.87- 61.7 72.5----
2024-04-14 02:12 pmSSE 15.0 20.0----29.88- 61.9 72.5----
2024-04-14 02:06 pmSSE 15.9 20.0----29.88- 61.2 72.3----
2024-04-14 02:00 pmSSE 14.0 22.0----29.89-0.11 61.9 72.3----
2024-04-14 01:54 pmSSE 13.0 18.1----29.90- 62.1 72.3----
2024-04-14 01:48 pmSSE 11.1 17.1----29.91- 62.1 72.3----
2024-04-14 01:42 pmSSE 11.1 17.1----29.91- 62.1 72.1----
2024-04-14 01:36 pmSSE 12.0 17.1----29.91- 61.7 72.1----
2024-04-14 01:30 pmSSE 8.0 15.0----29.92- 62.6 72.1----
2024-04-14 01:24 pmSSE 15.0 18.1----29.93- 61.2 72.0----
2024-04-14 01:18 pmSSE 12.0 18.1----29.93- 61.7 72.1----
2024-04-14 01:12 pm SE 9.9 12.0----29.94- 62.1 72.1----
2024-04-14 01:06 pm SE 8.9 13.0----29.95- 62.6 72.1----
2024-04-14 01:00 pmSSE 9.9 13.0----29.95-0.06 62.8 72.1----
2024-04-14 12:54 pmSSE 7.0 9.9----29.96- 63.1 72.1----
2024-04-14 12:48 pmSSE 8.0 11.1----29.96-- 72.0----
2024-04-14 12:42 pm S 8.0 13.0----29.96-- 72.0----
2024-04-14 12:36 pm S 6.0 9.9----29.96-- 72.0----
2024-04-14 12:30 pm S 11.1 15.9----29.96-- 72.0----
2024-04-14 12:24 pm S 8.0 12.0----29.97-- 72.0----
2024-04-14 12:18 pm S 8.0 15.0----29.96- 64.6 72.0----
2024-04-14 12:12 pm S 7.0 15.0----29.97- 63.5 72.1----
2024-04-14 12:06 pm S 11.1 15.0----29.97- 64.2 72.1----
2024-04-14 12:00 pm S 9.9 13.0----29.97-0.07 63.7 72.1----
2024-04-14 11:54 am S 6.0 11.1----29.97- 63.3 72.1----
2024-04-14 11:48 am S 8.0 12.0----29.98- 63.1 72.1----
2024-04-14 11:42 am S 9.9 14.0----29.98- 63.1 72.1----
2024-04-14 11:36 amSSW 11.1 15.0----29.98- 62.2 72.1----
2024-04-14 11:30 amSSW 11.1 14.0----29.99-- 72.1----
2024-04-14 11:24 amSSW 8.9 12.0----30.00-- 72.1----
2024-04-14 11:18 amSSW 9.9 12.0----30.00-- 72.1----
2024-04-14 11:12 amSSW 8.9 12.0----30.00-- 72.1----
2024-04-14 11:06 amSSW 8.9 12.0----30.01-- 72.1----
2024-04-14 11:00 amSSW 9.9 13.0----30.01-0.03 60.8 72.1----
2024-04-14 10:54 am S 9.9 14.0----30.00- 61.5 72.1----
2024-04-14 10:48 amSSW 11.1 13.0----30.00- 61.2 72.1----
2024-04-14 10:42 amSSW 9.9 15.0----30.01- 60.4 72.1----
2024-04-14 10:36 am S 11.1 13.0----30.01- 60.6 72.1----
2024-04-14 10:30 amSSW 9.9 14.0----30.01- 60.8 72.3----
2024-04-14 10:24 amSSW 9.9 13.0----30.01- 59.5 72.3----
2024-04-14 10:18 amSSW 9.9 13.0----30.01- 59.4 72.3----
2024-04-14 10:12 amSSW 9.9 13.0----30.01- 58.8 72.3----
2024-04-14 10:06 amSSW 8.0 11.1----30.01- 58.1 72.1----
2024-04-14 10:00 amSSW 8.0 13.0----30.01-0.01- 72.1----
2024-04-14 09:54 amSSW 8.0 11.1----30.01-- 72.1----
2024-04-14 09:48 amSSW 8.0 11.1----30.02- 57.4 72.1----
2024-04-14 09:42 amSSW 8.9 13.0----30.02- 57.0 72.1----
2024-04-14 09:36 amSSW 8.0 11.1----30.02- 56.8 72.1----
2024-04-14 09:30 amSSW 8.9 11.1----30.02-- 72.1----
2024-04-14 09:24 amSSW 8.9 11.1----30.03-- 72.1----
2024-04-14 09:18 amSSW 8.9 9.9----30.03- 56.1 72.1----
2024-04-14 09:12 amSSW 8.0 9.9----30.03- 55.8 72.1----
2024-04-14 09:06 amSSW 8.0 9.9----30.03- 55.9 72.1----
2024-04-14 09:00 amSSW 8.0 12.0----30.04- 55.8 72.1----
2024-04-14 08:54 amSSW 8.0 9.9----30.05- 55.6 72.1----
2024-04-14 08:48 am-------30.05- 55.6 72.1----
2024-04-14 08:42 am-------30.05- 55.4 72.1----
2024-04-14 08:36 am-------30.05- 55.0 72.1----
2024-04-14 08:30 amSSW 8.9 12.0----30.05-- 72.1----
2024-04-14 08:24 amSSW 9.9 12.0----30.05-- 72.1----
2024-04-14 08:18 amSSW 8.9 12.0----30.04- 55.0 72.1----
2024-04-14 08:12 am SW 9.9 11.1----30.04- 55.0 72.1----
2024-04-14 08:06 am SW 7.0 9.9----30.04- 54.7 72.1----
2024-04-14 08:00 amSSW 7.0 11.1----30.04+0.03- 72.1----
2024-04-14 07:54 am SW 8.9 11.1----30.04-- 72.1----
2024-04-14 07:48 amSSW 7.0 9.9----30.03-- 72.1----
2024-04-14 07:42 amSSW 8.0 9.9----30.03-- 72.1----
2024-04-14 07:36 amSSW 6.0 8.0----30.03-- 72.1----
2024-04-14 07:30 amSSW 6.0 7.0----30.03- 54.7 72.1----
2024-04-14 07:24 amSSW 5.1 7.0----30.03- 54.5 72.1----
2024-04-14 07:18 amSSW 5.1 7.0----30.03-------
2024-04-14 07:12 amSSW 5.1 8.0----30.03-------
2024-04-14 07:06 am SW 7.0 8.0----30.03-------
2024-04-14 07:00 am SW 5.1 7.0----30.03+0.03 53.6 72.0----
2024-04-14 06:54 amSSW 4.1 6.0----30.03- 53.1 72.0----
2024-04-14 06:48 am S 1.9 4.1----30.03-- 71.8----
2024-04-14 06:42 amSSW 4.1 7.0----30.02-- 71.8----
2024-04-14 06:36 am SW 6.0 8.0----30.02-- 71.8----
2024-04-14 06:30 am SW 7.0 8.9----30.02- 53.1 71.8----
2024-04-14 06:24 am SW 6.0 8.0----30.02- 52.7 71.6----
2024-04-14 06:18 am SW 5.1 7.0----30.02- 52.7 71.6----
2024-04-14 06:12 amSSW 4.1 8.0----30.02- 52.7 71.4----
2024-04-14 06:06 am SW 7.0 8.0----30.02- 52.9 71.4----
2024-04-14 06:00 am SW 7.0 8.0------ 53.1-----
2024-04-14 05:54 am SW 8.0 8.9------ 53.1-----
2024-04-14 05:48 am SW 8.9 8.9------ 53.1 71.4----
2024-04-14 05:42 am SW 8.0 9.9------ 53.2 71.2----
2024-04-14 05:36 am SW 8.9 11.1------ 53.2 71.2----
2024-04-14 05:30 am SW 9.9 11.1----30.01-- 71.2----
2024-04-14 05:24 amWSW 9.9 12.0----30.01-- 71.2----
2024-04-14 05:18 am SW 8.9 11.1----30.01- 53.6 71.2----
2024-04-14 05:12 amWSW 8.0 8.9----30.01- 53.8 71.2----
2024-04-14 05:06 amWSW 8.0 8.9----30.01- 53.8 71.2----
2024-04-14 05:00 amWSW 7.0 8.0----30.01+0.03 53.8 71.1----
2024-04-14 04:54 amWSW 8.0 8.9----30.01- 54.0 71.1----
2024-04-14 04:48 amWSW 8.9 9.9----30.01- 54.0 71.1----
2024-04-14 04:42 amWSW 8.9 9.9----30.01- 54.1 70.9----
2024-04-14 04:36 amWSW 8.9 11.1----30.01- 54.0 70.9----
2024-04-14 04:30 amWSW 8.9 9.9----30.01- 53.8 70.9----
2024-04-14 04:24 amWSW 8.9 8.9----30.00- 53.8 70.9----
2024-04-14 04:18 am W 7.0 9.9----30.00- 54.1 70.9----
2024-04-14 04:12 am W 8.9 11.1----30.00- 54.9 71.1----
2024-04-14 04:06 am W 8.0 9.9----30.00- 54.9 71.1----
2024-04-14 04:00 am W 8.0 11.1----30.00+0.02 54.7 71.1----
2024-04-14 03:54 am W 8.0 11.1----30.00- 54.7 71.2----
2024-04-14 03:48 am W 9.9 11.1----30.00- 54.9 71.2----
2024-04-14 03:42 am W 8.0 11.1----29.99- 54.7 71.4----
2024-04-14 03:36 am W 8.9 11.1----29.99- 54.7 71.4----
2024-04-14 03:30 am W 8.9 11.1----29.99- 54.3 71.4----
2024-04-14 03:24 am W 8.9 11.1----29.99- 54.3 71.4----
2024-04-14 03:18 am W 8.0 9.9----29.99- 54.0 71.4----
2024-04-14 03:12 am W 7.0 8.0----29.99- 53.6 71.4----
2024-04-14 03:06 am W 6.0 8.0----29.99- 53.4 71.2----
2024-04-14 03:00 am W 5.1 6.0----29.99+0.02 53.1 71.2----
2024-04-14 02:54 am W 6.0 7.0----29.98- 53.2 71.2----
2024-04-14 02:48 am W 6.0 8.0----29.98- 53.4 71.2----
2024-04-14 02:42 am W 7.0 8.0----29.98- 53.6 71.1----
2024-04-14 02:36 am W 8.0 11.1----29.98- 54.0 71.1----
2024-04-14 02:30 am W 8.0 9.9----29.98- 53.8 71.1----
2024-04-14 02:24 am W 8.0 9.9----29.98- 53.6 71.1----
2024-04-14 02:18 am W 7.0 9.9----29.98- 53.6 70.9----
2024-04-14 02:12 am W 8.0 9.9----29.98- 54.0 70.5----
2024-04-14 02:06 am W 7.0 8.9----29.98- 53.8 70.5----
2024-04-14 02:00 am W 7.0 8.9----29.98+0.04 53.8 71.2----
2024-04-14 01:54 amWNW 5.1 8.9----29.98- 53.4 71.4----
2024-04-14 01:48 amWNW 6.0 8.0----29.98- 53.4 71.4----
2024-04-14 01:42 amWNW 7.0 8.9----29.98- 53.6 71.4----
2024-04-14 01:36 am W 7.0 9.9----29.98- 53.8 71.4----
2024-04-14 01:30 am W 8.0 9.9----29.98- 53.8 71.4----
2024-04-14 01:24 am W 7.0 8.9----29.98- 54.0 71.4----
2024-04-14 01:18 am W 8.0 12.0----29.99- 54.3 71.4----
2024-04-14 01:12 amWNW 7.0 9.9----29.98- 54.7 71.4----
2024-04-14 01:06 amWNW 7.0 11.1----29.98- 54.5 71.4----
2024-04-14 01:00 amWNW 8.0 12.0----29.98+0.06 54.9 71.4----
2024-04-14 12:54 amWNW 9.9 13.0----29.98- 55.0 71.4----